Lid_Strength_Index
0 -0 -1 1 7 7 9 9 7 7 7 6 5 5 6 5 6 8 1 -0 -0 -0 -1 -1 -1 -1 -2 -2 -1 -1 -1 -1 -1 -1 -1 -1 -1 -1 -1 -1 -1 -1 -1 -1 -1 -1 -1 -1 -1
1 1 0 3 9 11 10 8 8 6 6 6 6 6 6 6 4 3 2 -0 -1 -1 -1 -1 -1 -1 -1 -1 -1 -1 -1 -2 -1 -1 -1 -1 -1 -1 -1 -1 -1 -1 -1 -1 -1 -1 -1 -1 -1
2 2 4 6 8 10 10 8 7 7 6 6 6 5 5 5 4 2 0 -0 -1 -1 -1 -1 -1 -1 -1 -1 -1 -1 -1 -2 -2 -1 -1 -1 -1 -1 -1 -1 -1 -1 -1 -1 -1 -1 -0 -0 -0
2 2 4 8 10 8 8 7 6 6 6 6 5 6 4 3 3 2 -0 -0 -0 -1 -1 -1 -1 -1 -1 -1 -1 -1 -2 -1 -2 -1 -1 -1 -1 -1 -1 -1 -1 -1 -1 -1 -0 0 0 1 1
2 4 8 9 10 8 7 7 7 7 7 6 6 6 6 4 3 2 0 -0 0 -0 -1 -1 -1 -1 -1 -1 -1 -1 -1 -2 -2 -2 -1 -1 -1 -1 -1 -1 -1 -1 -1 -0 -0 -0 0 1 1
5 5 9 10 9 8 7 6 7 7 6 6 6 6 5 4 4 2 -0 -0 -0 -0 -1 -1 0 -0 -1 -1 -1 -1 -1 -2 -2 -2 -2 -1 -1 -1 -1 -2 -1 -0 0 -0 -0 1 1 1 2
7 7 9 9 9 8 7 6 7 6 6 6 5 6 5 4 3 2 -0 -0 -0 -1 -1 -1 -1 -1 1 0 -0 -1 -2 -2 -2 -2 -2 -1 -2 -2 -1 -1 -1 -0 -0 -0 1 1 2 2 3
4 6 9 8 9 9 6 7 6 6 6 5 5 6 6 4 4 1 0 0 -0 -0 -0 -1 -1 -1 -1 -1 1 -0 -1 -1 -1 -1 -1 -1 -1 -1 -1 -1 -1 -0 0 1 1 2 3 3 4
6 8 9 9 9 8 6 7 6 6 6 6 5 5 4 4 3 2 1 1 1 0 -0 -1 -1 -1 -1 -1 -0 1 -0 -1 -0 -1 0 0 -1 -0 0 0 -0 0 1 2 2 3 4 5 6
6 8 9 7 7 8 7 7 6 7 6 5 5 4 5 5 4 3 2 2 2 1 1 -0 -0 -1 -1 -1 -1 -1 -1 -1 -1 -1 -1 -1 -0 0 1 2 0 1 2 3 3 5 7 9 8
7 9 7 8 8 8 8 8 7 7 7 5 5 5 4 5 4 4 3 2 2 1 1 0 -0 -1 -1 -1 -1 -1 -1 -1 -1 -1 -1 -0 1 1 2 2 1 2 3 4 5 7 8 8 8
9 8 8 7 8 8 8 7 8 8 6 4 4 4 4 5 5 4 3 2 1 1 1 0 -0 -0 -1 -1 -1 -1 -1 -1 -1 -1 -1 1 1 2 2 2 2 3 4 5 7 8 8 9 9
9 8 8 7 8 8 8 8 8 8 5 5 5 5 6 5 4 4 3 3 2 2 1 0 -0 -0 -0 -0 -1 -1 -1 -1 -1 -1 0 1 2 3 3 3 3 4 5 6 8 8 9 9 10
9 9 9 8 8 8 9 9 9 8 6 7 6 6 5 5 5 4 4 4 4 3 2 1 1 0 -0 -0 -0 -0 -1 -1 -1 -0 1 2 2 3 4 4 5 5 6 8 8 9 9 9 10
9 10 9 9 9 9 9 10 10 7 7 8 7 6 6 6 5 5 4 4 4 3 3 2 2 1 1 0 -0 -0 -0 -0 -0 1 1 2 3 4 5 5 5 7 8 9 9 10 9 10 10
11 11 12 10 10 10 9 12 9 7 9 8 8 7 7 7 6 6 5 5 4 4 4 3 3 2 1 1 0 0 0 1 1 1 2 3 4 5 5 6 7 8 9 9 9 10 11 10 10
11 13 13 12 10 11 10 12 9 8 9 9 8 8 7 7 6 6 6 6 5 5 5 4 4 3 2 2 1 1 1 2 2 2 3 4 4 6 6 6 7 8 9 9 9 10 10 11 11
13 14 13 14 10 11 12 12 10 9 9 9 9 8 7 7 7 6 6 6 6 5 5 5 5 4 4 3 2 2 2 2 2 3 3 4 5 6 7 7 7 9 9 10 10 10 11 11 11
12 13 14 12 10 12 12 12 11 10 9 9 9 8 8 8 7 7 6 6 6 6 6 6 6 5 5 5 5 4 4 4 4 3 4 5 5 6 7 7 8 9 9 10 10 11 12 12 11
13 14 14 12 11 13 12 13 11 10 10 9 9 8 8 8 7 7 7 6 6 6 6 7 7 6 6 5 5 5 5 5 4 4 5 5 6 7 7 8 8 9 9 10 10 11 12 11 12
13 14 13 14 12 12 14 13 12 10 10 9 9 9 9 9 8 8 7 7 6 7 7 7 7 7 7 6 6 6 6 7 6 6 6 6 6 7 8 8 8 9 9 10 10 11 11 12 12
14 11 13 14 15 16 13 17 12 10 10 10 9 9 9 9 8 8 8 8 8 8 7 7 7 8 8 7 7 7 8 8 8 7 7 7 7 8 8 8 9 9 10 10 10 10 10 10 12
13 13 13 14 15 15 15 16 12 12 12 10 10 9 9 9 9 9 9 9 9 8 9 8 8 8 8 8 8 8 8 7 7 7 8 8 9 8 9 9 9 9 10 10 10 10 10 10 10
12 13 13 14 15 17 14 15 14 12 12 10 10 10 10 10 11 11 11 10 11 10 10 10 10 10 9 8 8 8 8 8 8 8 9 9 9 9 9 9 9 9 10 10 10 10 10 11 10
13 14 16 17 17 17 15 16 14 11 11 12 12 12 11 11 11 12 12 12 12 12 11 11 11 11 11 10 9 9 9 8 9 8 9 9 10 10 10 10 10 10 10 10 10 11 11 11 11
13 13 17 22 19 17 14 16 13 10 11 12 11 11 11 12 12 12 12 12 12 12 12 12 12 12 12 11 11 10 10 9 9 9 9 9 9 9 9 9 10 10 11 11 11 11 11 11 11
13 15 11 16 15 18 15 12 11 11 12 11 12 12 12 12 12 12 11 11 11 11 12 12 12 12 12 12 11 10 10 10 10 9 9 9 9 9 9 9 10 10 11 11 11 12 12 12 11
12 11 16 15 21 20 16 15 14 13 12 12 11 12 13 12 12 12 12 11 11 11 10 10 11 11 11 11 11 10 11 11 10 10 10 10 10 10 10 10 11 11 11 11 12 12 12 13 12
13 13 13 13 16 19 20 15 11 12 13 13 13 13 14 14 13 13 12 12 11 11 11 11 10 11 11 11 11 11 11 11 11 11 10 10 10 10 10 11 11 11 11 12 12 12 12 13 13
9 11 11 16 17 15 16 16 8 11 13 13 14 14 13 13 13 13 13 12 12 11 11 11 12 11 11 11 11 11 11 12 12 12 12 11 11 11 11 11 11 12 12 12 13 13 13 14 14